Showing default

FENGYUN 1C, 25730

Orbit data source: Space-Track

FENGYUN 1C, 25730 is a payload satellite owned by CNMSC (CN) in SSO that was launched on Mon, 10 May 1999 UTC via a CHANG ZHENG 4B launch vehicle from the Taiyaun Space Center, China (TSC). Payload-class satellites include a variety of spacecraft equipped with specific instruments for various scientific and technological missions. These include communications satellites like Starlink; space stations such as the ISS; scientific satellites like the Hubble; Earth observation satellites from companies like Planet Labs, Umbra, and HawkEye 360; GPS; miniature CubeSats for education and research; and military/defense satellites.

Loading next visibility...
Identifier
25730, 1999-025A
Orbit
SSO
Country
Flag of CNCN / PRC
Related business
Manufacturer
SISE
Mission
Non-operational Civil Imaging
Bus & Motor
FY-1, Unknown motor
Mass
958 kg wet, ~958 kg dry
Launch date (UTC)
1999-05-10 (27 years ago)
Launch vehicle
CHANG ZHENG 4B
Launch site
Taiyaun Space Center, China (TSC)
Object type
Payload
Rocket body
Debris
Shape & HBR
Box + 2 Pan, 4.3 m
Radar Cross Section
5.659 m², Medium (>0.1 m² and < 1m²)

Expand to show TLE details & history
Last TLE update: 6 hours ago

TLE from 6 hours ago
0 FENGYUN 1C
1 25730U 99025A   26126.79342285  .00002296  00000-0  96390-3 0  9998
2 25730  98.8636 199.7736 0010408  19.2768 340.8803 14.26877148392050
Epoch: 2026-05-06T19:02Z
TLE epoch observation values (Epoch: 2026-05-06T19:02:31.734Z)
Latitude
-0.00007°
Longitude
49.49257°
Altitude
798.046 km
Speed
7.458 km/s
True Right ascension
13h 19m 05s
True Declination
0° 00' 00"
Sunlit
Object was in full shadow at epoch
Visualization orbit readout
Latitude
Unknown
Longitude
Unknown
Altitude
Unknown
Speed
Unknown
Apparent Right ascension
Unknown
Apparent Declination
Unknown
Sunlit
N/A
Visualization observer readout
Local Sidereal Time
09:22:35
Azimuth
Unknown
Elevation
Unknown
Doppler factor
Unknown
Orbital elements
Apogee altitude
806.815 km
Perigee altitude
791.875 km
Semi-major axis
7,177.482 km
Eccentricity
0.00104
Inclination
98.8636°
RAAN
199.7736°
Arg. of periapsis
19.2768°
True anomaly
340.84119°
Mean anomaly
340.8803°
Eccentric anomaly
340.86075°
Mean motion
3.56932 °/min
Orbital period
100.86 mins
BSTAR
0.0009639
Loading maneuver chart data...
Computing Atmospheric mass density...

Documentation

Showing up to 5 results
|